1506855600.11,50179,16.06,74312.3,8.41,-42.37,-42.19,0,*76
1506855601.31,50180,16.06,74312.3,8.39,-42.37,-42.37,0,*73
1506855602.53,50181,16.06,74308.0,8.39,-42.45,-42.25,0,*74
1506855603.78,50182,16.06,74308.5,8.33,-39.91,-39.71,0,*75
1506855604.98,50183,16.06,74304.5,8.35,-41.03,-41.11,0,*7F
1506855606.26,50184,16.06,74308.8,8.33,-41.81,-41.81,0,*7D
1506855607.45,50185,16.06,74308.3,8.31,-41.99,-41.73,0,*7A
1506855608.68,50186,16.06,74310.8,8.31,-39.91,-39.71,0,*73
1506855609.95,50187,16.06,74308.0,8.29,-40.41,-40.21,0,*73
1506855611.19,50188,16.06,74308.0,8.29,-39.09,-39.09,0,*7A
1506855612.44,50189,16.06,74308.0,8.29,-39.65,-39.59,0,*74
1506855613.67,50190,16.06,74308.8,8.31,-39.91,-39.71,0,*74
1506855614.9,50191,16.06,74306.0,8.29,-39.85,-39.65,0,*7C
1506855616.12,50192,16.06,74304.5,8.29,-40.03,-39.85,0,*71
1506855617.34,50193,16.06,74310.8,8.31,-38.05,-37.99,0,*73
1506855618.57,50194,16.06,74308.3,8.31,-38.35,-38.23,0,*79
1506855619.79,50195,16.06,74304.0,8.31,-39.03,-38.85,0,*70
1506855620.99,50196,16.06,74306.3,8.31,-38.73,-38.55,0,*78
1506855622.2,50197,16.06,74308.3,8.31,-38.23,-38.17,0,*7A
1506855623.43,50198,16.06,74306.0,8.35,-38.05,-37.99,0,*7C
1506855624.66,50199,16.06,74310.5,8.35,-37.57,-37.51,0,*71
1506855625.91,50200,16.06,74306.5,8.41,-37.69,-37.57,0,*7A
1506855627.13,50201,16.06,74304.0,8.39,-39.29,-39.09,0,*7B
1506855628.32,50202,16.06,74302.0,8.39,-40.47,-40.65,0,*7A
1506855629.54,50203,16.06,74306.0,8.39,-43.29,-43.41,0,*75
1506855630.76,50204,16.06,74304.0,8.33,-44.41,-44.41,0,*76
1506855632.01,50205,16.06,74302.5,8.31,-46.07,-46.07,0,*75
1506855633.21,50206,16.06,74302.5,8.23,-44.41,-44.27,0,*75
1506855634.46,50207,16.06,74304.5,8.21,-44.21,-44.61,0,*72
1506855635.7,50208,16.06,74300.5,8.19,-44.33,-44.33,0,*72
1506855636.96,50209,16.06,74300.0,8.19,-41.35,-41.35,0,*73
1506855638.23,50210,16.06,74304.8,8.17,-44.33,-44.47,0,*76
1506855639.45,50211,16.06,74304.3,8.15,-44.07,-44.21,0,*72
1506855640.71,50212,16.06,74306.5,8.11,-43.01,-42.95,0,*7D
1506855641.97,50213,16.06,74306.8,8.07,-43.01,-42.95,0,*7B
1506855643.2,50214,16.06,74306.5,8.05,-42.25,-42.31,0,*77
1506855644.4,50215,16.06,74304.0,8.05,-43.15,-43.15,0,*73
1506855645.62,50216,16.06,74304.0,8.05,-41.81,-41.61,0,*7E
1506855646.86,50217,16.06,74302.8,8.05,-42.45,-42.69,0,*7F
1506855648.09,50218,16.06,74300.8,8.03,-42.63,-42.51,0,*79
1506855649.32,50219,16.06,74306.0,8.03,-42.51,-42.51,0,*79
1506855650.53,50220,16.06,74300.8,8.01,-43.41,-43.61,0,*73
1506855651.77,50221,16.06,74300.3,7.99,-42.63,-42.57,0,*79
1506855653.03,50222,16.06,74306.5,7.99,-42.95,-43.01,0,*71
1506855654.28,50223,16.06,74304.0,7.97,-42.83,-42.83,0,*72
1506855655.51,50224,16.06,74304.0,7.97,-43.41,-43.55,0,*70
1506855656.79,50225,16.06,74302.0,7.95,-43.55,-43.55,0,*76
1506855658.0,50226,16.06,74306.3,7.93,-43.01,-42.89,0,*72
1506855659.21,50227,16.06,74306.3,7.89,-43.41,-43.35,0,*7A
1506855660.44,50228,16.06,74308.5,7.89,-42.57,-42.51,0,*70
1506855661.69,50229,16.06,74308.5,7.87,-43.21,-43.15,0,*7E
1506855662.95,50230,16.06,74310.5,7.85,-41.55,-41.55,0,*73
1506855664.18,50231,16.06,74304.5,7.87,-41.03,-41.17,0,*75
1506855665.44,50232,16.06,74306.3,7.87,-40.53,-40.41,0,*70
1506855666.67,50233,16.06,74310.5,7.85,-41.93,-41.99,0,*7A
1506855667.88,50234,16.06,74306.8,7.85,-41.03,-40.91,0,*7D
1506855669.08,50235,16.06,74310.0,7.85,-40.73,-40.53,0,*74
1506855670.34,50236,16.06,74310.0,7.87,-39.97,-39.65,0,*7A
1506855671.63,50237,16.06,74306.5,7.87,-39.79,-39.59,0,*74
1506855672.84,50238,16.06,74308.0,7.89,-38.61,-38.55,0,*70
1506855674.1,50239,16.06,74306.8,7.93,-39.03,-38.91,0,*77
1506855675.33,50240,16.06,74308.3,7.93,-38.49,-38.35,0,*78
1506855676.59,50241,16.06,74308.5,7.95,-37.57,-37.39,0,*7C
1506855677.82,50242,16.06,74312.3,7.97,-39.15,-38.97,0,*7E
1506855679.05,50243,16.06,74308.8,7.97,-39.65,-39.59,0,*7B
1506855680.29,50244,16.06,74314.3,7.97,-39.79,-39.65,0,*7E
1506855681.53,50245,16.06,74310.0,7.97,-41.41,-41.23,0,*76
1506855682.78,50246,16.06,74312.8,7.97,-40.59,-40.41,0,*78
1506855684.01,50247,16.06,74310.3,7.97,-41.55,-41.61,0,*77
1506855685.27,50248,16.06,74308.0,7.97,-39.79,-39.59,0,*7D
1506855686.5,50249,16.06,74308.8,7.97,-39.03,-38.85,0,*71
1506855687.72,50250,16.06,74308.5,7.97,-40.21,-39.47,0,*78
1506855688.94,50251,16.06,74308.5,7.99,-38.17,-38.05,0,*7A
1506855690.16,50252,16.06,74310.5,8.01,-38.91,-38.73,0,*78
1506855691.39,50253,16.06,74314.0,8.01,-39.91,-39.71,0,*7B
1506855692.64,50254,16.06,74310.5,8.01,-37.93,-37.93,0,*72
1506855693.86,50255,16.06,74306.3,8.05,-38.29,-38.17,0,*7A
1506855695.11,50256,16.06,74306.5,8.03,-38.35,-38.11,0,*74
1506855696.36,50257,16.06,74308.3,8.03,-38.73,-38.49,0,*7A
1506855697.62,50258,16.06,74302.5,8.05,-38.49,-38.49,0,*7A
1506855698.88,50259,16.06,74302.8,8.09,-39.59,-39.59,0,*77
1506855700.08,50260,16.06,74304.0,8.09,-38.35,-38.55,0,*7B
1506855701.31,50261,16.06,74304.3,8.09,-37.93,-37.75,0,*74
1506855702.53,50262,16.06,74302.5,8.09,-37.45,-37.39,0,*74
1506855703.76,50263,16.06,74304.0,8.15,-37.93,-37.87,0,*76
1506855705.02,50264,16.06,74306.0,8.17,-38.61,-38.49,0,*7C
1506855706.29,50265,16.06,74306.8,8.17,-39.41,-39.29,0,*79
1506855707.55,50266,16.06,74306.8,8.17,-41.03,-40.85,0,*7B
1506855708.78,50267,16.06,74304.0,8.11,-42.13,-41.99,0,*72
1506855710.05,50268,16.06,74306.3,8.11,-39.97,-39.79,0,*7C
1506855711.27,50269,16.06,74308.0,8.11,-41.29,-41.17,0,*70
1506855712.5,50270,16.06,74308.3,8.09,-43.81,-43.75,0,*77
1506855713.76,50271,16.06,74306.8,8.07,-44.73,-44.67,0,*76
1506855714.99,50272,16.06,74310.8,8.05,-42.69,-42.63,0,*78
1506855716.22,50273,16.06,74308.8,8.03,-40.73,-40.91,0,*79
1506855717.46,50274,16.06,74306.8,8.05,-42.69,-42.05,0,*7E
1506855718.69,50275,16.06,74308.8,8.03,-41.49,-41.49,0,*73
1506855719.92,50276,16.06,74308.0,7.99,-43.01,-43.01,0,*7C
1506855721.16,50277,16.06,74308.5,7.99,-41.99,-42.05,0,*7B
1506855722.39,50278,16.06,74310.3,7.99,-42.63,-42.63,0,*72
1506855723.59,50279,16.06,74304.0,7.97,-41.61,-41.61,0,*7D
1506855724.88,50280,16.06,74302.8,7.95,-41.81,-41.67,0,*71
1506855726.1,50281,16.06,74304.0,7.95,-40.47,-40.47,0,*78
1506855727.34,50282,16.06,74306.5,7.95,-39.85,-39.65,0,*75
1506855728.59,50283,16.06,74306.5,7.95,-39.91,-39.71,0,*74
1506855729.82,50284,16.06,74306.8,7.97,-39.23,-38.97,0,*71
1506855731.03,50285,16.06,74302.8,7.97,-41.17,-41.03,0,*7B
1506855732.31,50286,16.06,74304.5,7.95,-40.41,-40.29,0,*71
1506855733.55,50287,16.06,74306.3,7.97,-37.87,-37.81,0,*7A
1506855734.79,50288,16.06,74304.3,7.99,-37.63,-37.33,0,*78
1506855736.02,50289,16.06,74304.5,8.01,-38.23,-38.17,0,*75
1506855737.22,50290,16.06,74300.5,8.01,-38.61,-38.43,0,*7A
1506855738.44,50291,16.06,74300.5,8.05,-37.75,-37.69,0,*72
1506855739.68,50292,16.06,74302.3,8.07,-37.51,-37.45,0,*7B
1506855740.96,50293,16.06,74304.0,8.07,-37.99,-37.81,0,*76
1506855742.18,50294,16.06,74304.3,8.09,-38.35,-38.23,0,*71
1506855743.43,50295,16.06,74300.8,8.11,-38.05,-37.93,0,*7E
1506855744.66,50296,16.06,74304.5,8.09,-37.09,-37.03,0,*7E
1506855745.88,50297,16.06,74306.5,8.15,-36.67,-36.61,0,*7E
1506855747.12,50298,16.06,74302.0,8.15,-37.69,-37.69,0,*77
1506855748.4,50299,16.06,74302.5,8.17,-41.81,-41.81,0,*74
1506855749.65,50300,16.06,74300.5,8.17,-40.97,-41.03,0,*79
1506855750.87,50301,16.06,74300.0,8.15,-41.29,-41.23,0,*7C
1506855752.13,50302,16.06,74296.5,8.11,-39.15,-39.09,0,*7C
1506855753.37,50303,16.06,74300.8,8.15,-39.53,-39.29,0,*79
1506855754.65,50304,16.06,74300.8,8.11,-39.23,-38.91,0,*7F
1506855755.9,50305,16.06,74302.8,8.11,-39.15,-38.97,0,*7D
1506855757.15,50306,16.06,74304.8,8.11,-39.91,-39.79,0,*73
1506855758.4,50307,16.06,74300.3,8.15,-38.11,-37.93,0,*75
1506855759.67,50308,16.06,74302.3,8.11,-37.93,-37.81,0,*78
1506855760.89,50309,16.06,74302.5,8.15,-38.73,-38.67,0,*7B
1506855762.14,50310,16.06,74302.5,8.17,-38.29,-38.05,0,*7A
1506855763.42,50311,16.06,74302.3,8.17,-37.69,-37.51,0,*7E
1506855764.64,50312,16.06,74302.5,8.21,-38.35,-38.17,0,*73
1506855765.86,50313,16.06,74296.5,8.21,-38.35,-38.05,0,*71
1506855767.11,50314,16.06,74296.3,8.23,-37.81,-37.81,0,*77
1506855768.33,50315,16.06,74298.8,8.23,-37.63,-37.45,0,*72
1506855769.58,50316,16.06,74298.8,8.23,-37.99,-37.81,0,*7C
1506855770.77,50317,16.06,74306.3,8.27,-37.45,-37.33,0,*71
1506855772.04,50318,16.06,74298.5,8.25,-37.51,-37.21,0,*7A
1506855773.26,50319,16.06,74300.8,8.27,-37.75,-37.69,0,*73
1506855774.48,50320,16.06,74302.3,8.27,-36.97,-36.79,0,*74
1506855775.73,50321,16.06,74300.8,8.29,-36.73,-36.61,0,*78
1506855776.96,50322,16.06,74300.8,8.31,-37.99,-37.87,0,*7E
1506855778.18,50323,16.06,74302.8,8.31,-38.43,-38.23,0,*76
1506855779.43,50324,16.06,74300.8,8.31,-39.15,-39.03,0,*70
1506855780.66,50325,16.06,74302.5,8.31,-38.61,-38.23,0,*70
1506855781.88,50326,16.06,74298.8,8.31,-38.79,-38.61,0,*7C
1506855783.08,50327,16.06,74300.5,8.31,-38.73,-38.43,0,*77
1506855784.3,50328,16.06,74296.8,8.31,-38.43,-38.23,0,*7D
1506855785.58,50329,16.06,74300.5,8.33,-38.23,-37.99,0,*76
1506855786.8,50330,16.06,74300.3,8.33,-38.17,-37.87,0,*76
1506855788.07,50331,16.06,74292.8,8.33,-39.41,-39.23,0,*75
1506855789.32,50332,16.06,74292.8,8.33,-39.23,-38.85,0,*7F
1506855790.58,50333,16.06,74298.8,8.33,-40.09,-39.91,0,*7C
1506855791.8,50334,16.06,74298.8,8.31,-38.79,-38.55,0,*78
1506855793.05,50335,16.06,74298.3,8.31,-37.63,-37.39,0,*78
1506855794.3,50336,16.06,74302.5,8.33,-37.09,-36.73,0,*7A
1506855795.53,50337,16.06,74298.5,8.35,-36.61,-36.31,0,*74
1506855796.73,50338,16.06,74300.5,8.35,-37.33,-37.03,0,*7D
1506855797.95,50339,16.06,74298.5,8.39,-37.27,-37.09,0,*7F
1506855799.17,50340,16.06,74298.8,8.39,-37.33,-37.09,0,*74
1506855800.41,50341,16.06,74300.8,8.41,-38.05,-37.69,0,*76
1506855801.68,50342,16.06,74302.0,8.41,-37.93,-37.69,0,*75
1506855802.89,50343,16.06,74296.3,8.45,-40.73,-40.73,0,*75
1506855804.13,50344,16.06,74302.0,8.39,-39.97,-39.79,0,*79
1506855805.36,50345,16.06,74300.5,8.39,-38.61,-38.29,0,*74
1506855806.55,50346,16.06,74298.3,8.39,-41.41,-41.29,0,*75
1506855807.8,50347,16.06,74302.5,8.33,-42.51,-42.19,0,*7C
1506855809.08,50348,16.06,74300.0,8.33,-40.09,-39.97,0,*76
1506855810.28,50349,16.06,74302.8,8.31,-41.17,-41.17,0,*7C
1506855811.53,50350,16.06,74304.0,8.31,-40.41,-40.41,0,*74
1506855812.75,50351,16.06,74306.0,8.31,-41.55,-41.61,0,*72
1506855814.01,50352,16.06,74306.5,8.29,-41.03,-40.85,0,*70
1506855815.25,50353,16.06,74306.0,8.27,-40.59,-40.59,0,*70
1506855816.48,50354,16.06,74306.5,8.25,-41.49,-41.41,0,*7D
1506855817.7,50355,16.06,74304.3,8.25,-40.03,-39.91,0,*71
1506855818.95,50356,16.06,74304.3,8.25,-39.91,-39.71,0,*79
1506855820.23,50357,16.06,74302.5,8.25,-37.93,-37.81,0,*75
1506855821.45,50358,16.06,74306.8,8.27,-38.29,-38.05,0,*75
1506855822.69,50359,16.06,74302.8,8.27,-38.91,-38.79,0,*7C
1506855823.94,50360,16.06,74300.8,8.27,-38.11,-37.93,0,*75
1506855825.15,50361,16.06,74304.0,8.27,-37.51,-37.33,0,*75
1506855826.41,50362,16.06,74304.5,8.29,-39.47,-38.91,0,*76
1506855827.65,50363,16.06,74302.8,8.29,-40.03,-39.97,0,*7E
1506855828.93,50364,16.06,74304.5,8.29,-38.23,-38.11,0,*7B
1506855830.14,50365,16.06,74300.8,8.31,-39.53,-39.35,0,*72
1506855831.36,50366,16.06,74304.8,8.31,-37.57,-37.39,0,*79
1506855832.56,50367,16.06,74306.8,8.31,-36.85,-36.55,0,*7D
1506855833.79,50368,16.06,74302.8,8.31,-37.27,-37.21,0,*79
1506855835.01,50369,16.06,74306.8,8.35,-37.93,-37.75,0,*72
1506855836.24,50370,16.06,74308.0,8.35,-37.81,-37.57,0,*79
1506855837.52,50371,16.06,74308.0,8.41,-37.69,-37.51,0,*7B
1506855838.72,50372,16.06,74302.5,8.39,-37.33,-37.15,0,*78
1506855840.0,50373,16.06,74296.5,8.41,-39.79,-39.79,0,*72
1506855841.25,50374,16.06,74304.0,8.39,-39.59,-39.29,0,*7D
1506855842.47,50375,16.06,74304.0,8.39,-39.03,-38.73,0,*7D
1506855843.67,50376,16.06,74304.0,8.39,-38.05,-37.87,0,*7D
1506855844.87,50377,16.06,74306.0,8.39,-36.73,-36.55,0,*7D
1506855846.13,50378,16.06,74302.8,8.41,-36.61,-36.43,0,*79
1506855847.35,50379,16.06,74302.8,8.45,-37.03,-36.79,0,*70
1506855848.61,50380,16.06,74300.3,8.47,-36.31,-36.25,0,*7D
1506855849.84,50381,16.06,74300.3,8.49,-37.87,-37.93,0,*72
1506855851.09,50382,16.06,74302.3,8.49,-38.23,-38.11,0,*75
1506855852.34,50383,16.06,74300.0,8.51,-38.49,-38.17,0,*77
1506855853.55,50384,16.06,74298.3,8.49,-41.49,-41.41,0,*7A
1506855854.79,50385,16.06,74300.0,8.51,-43.21,-43.15,0,*7D
1506855856.0,50386,16.06,74298.5,8.45,-41.87,-41.73,0,*77
1506855857.29,50387,16.06,74296.5,8.41,-39.79,-39.59,0,*7B
1506855858.58,50388,16.06,74300.8,8.41,-41.23,-40.97,0,*78
1506855859.77,50389,16.06,74300.5,8.39,-40.03,-39.65,0,*76
1506855860.99,50390,16.06,74302.5,8.39,-39.47,-39.41,0,*76
1506855862.22,50391,16.06,74300.5,8.39,-41.23,-41.03,0,*73
1506855863.47,50392,16.06,74302.3,8.33,-41.17,-40.97,0,*71
1506855864.71,50393,16.06,74298.0,8.33,-40.91,-40.91,0,*79
1506855865.92,50394,16.06,74300.3,8.33,-40.53,-40.15,0,*7C
1506855867.19,50395,16.06,74304.0,8.33,-39.53,-39.71,0,*7F
1506855868.45,50396,16.06,74302.3,8.29,-42.25,-42.19,0,*78
1506855869.71,50397,16.06,74300.3,8.29,-41.17,-40.97,0,*7F
1506855870.95,50398,16.06,74304.5,8.29,-40.29,-40.03,0,*71
1506855872.17,50399,16.06,74302.3,8.29,-41.61,-41.41,0,*7A
1506855873.42,50400,16.06,74306.0,8.27,-43.21,-43.21,0,*71
1506855874.66,50401,16.06,74304.3,8.25,-42.45,-42.25,0,*74
1506855875.92,50402,16.06,74304.5,8.21,-40.15,-39.97,0,*71
1506855877.16,50403,16.06,74300.8,8.23,-39.53,-39.41,0,*75
1506855878.38,50404,16.06,74302.3,8.21,-38.43,-38.17,0,*72
1506855879.6,50405,16.06,74298.8,8.23,-37.27,-37.09,0,*7C
1506855880.85,50406,16.06,74298.5,8.25,-36.79,-36.67,0,*7A
1506855882.04,50407,16.06,74306.0,8.27,-36.43,-36.19,0,*79
1506855883.32,50408,16.06,74306.0,8.29,-37.69,-37.51,0,*7C
1506855884.57,50409,16.06,74302.0,8.31,-37.21,-36.91,0,*75
1506855885.79,50410,16.06,74302.5,8.35,-36.49,-36.19,0,*76
1506855887.04,50411,16.06,74298.5,8.33,-38.05,-37.69,0,*71
1506855888.29,50412,16.06,74298.5,8.35,-37.51,-37.39,0,*7F
1506855889.54,50413,16.06,74292.8,8.41,-36.43,-36.37,0,*70
1506855890.78,50414,16.06,74292.3,8.41,-38.23,-38.05,0,*70
1506855892.01,50415,16.06,74292.0,8.45,-38.91,-38.61,0,*7E
1506855893.21,50416,16.06,74298.5,8.45,-37.57,-37.33,0,*70
1506855894.46,50417,16.06,74294.5,8.47,-37.03,-36.79,0,*7D
1506855895.72,50418,16.06,74296.8,8.47,-36.97,-36.79,0,*7E
1506855896.97,50419,16.06,74294.5,8.47,-36.85,-36.79,0,*7C
1506855898.25,50420,16.06,74300.8,8.51,-38.23,-37.99,0,*7C
1506855899.5,50421,16.06,74296.3,8.51,-37.21,-37.03,0,*73
1506855900.75,50422,16.06,74294.0,8.51,-40.53,-40.59,0,*7A
1506855902.0,50423,16.06,74294.8,8.51,-38.97,-38.79,0,*71
1506855903.28,50424,16.06,74296.0,8.51,-39.59,-39.59,0,*76
1506855904.51,50425,16.06,74296.0,8.51,-37.87,-38.05,0,*72
1506855905.76,50426,16.06,74294.5,8.49,-38.67,-38.49,0,*71
1506855906.95,50427,16.06,74298.0,8.49,-41.49,-41.61,0,*76
1506855908.18,50428,16.06,74298.3,8.49,-41.61,-41.81,0,*7D
1506855909.43,50429,16.06,74300.8,8.45,-41.93,-41.93,0,*7E
1506855910.69,50430,16.06,74296.0,8.45,-42.31,-42.31,0,*76
1506855911.91,50431,16.06,74302.5,8.39,-43.41,-43.21,0,*7A
1506855913.13,50432,16.06,74302.8,8.35,-42.45,-42.13,0,*70
1506855914.4,50433,16.06,74300.5,8.33,-43.21,-43.21,0,*74
1506855915.68,50434,16.06,74300.8,8.29,-42.19,-42.05,0,*75
1506855916.95,50435,16.06,74302.8,8.29,-40.59,-40.59,0,*79
1506855918.23,50436,16.06,74298.5,8.29,-39.41,-38.91,0,*76
1506855919.5,50437,16.06,74296.3,8.29,-40.97,-40.79,0,*7B
1506855920.78,50438,16.06,74298.8,8.29,-38.49,-38.49,0,*74
1506855922.03,50439,16.06,74296.8,8.29,-38.67,-38.61,0,*73
1506855923.32,50440,16.06,74298.5,8.29,-38.49,-38.29,0,*7D
1506855924.54,50441,16.06,74298.0,8.33,-38.55,-38.43,0,*76
1506855925.77,50442,16.06,74302.5,8.33,-38.17,-37.87,0,*74
1506855927.0,50443,16.06,74296.8,8.33,-38.55,-38.35,0,*75
1506855928.22,50444,16.06,74298.0,8.33,-38.61,-38.43,0,*74
1506855929.47,50445,16.06,74296.3,8.33,-40.53,-40.41,0,*76
1506855930.67,50446,16.06,74298.8,8.35,-38.85,-38.55,0,*7D
1506855931.88,50447,16.06,74296.8,8.35,-39.09,-38.97,0,*77
1506855933.13,50448,16.06,74300.5,8.35,-38.29,-37.99,0,*7A
1506855934.38,50449,16.06,74298.5,8.41,-39.09,-39.03,0,*76
1506855935.62,50450,16.06,74298.8,8.39,-40.79,-40.59,0,*79
1506855936.87,50451,16.06,74298.3,8.35,-38.11,-38.11,0,*76
1506855938.06,50452,16.06,74300.8,8.39,-39.47,-39.47,0,*79
1506855939.31,50453,16.06,74298.5,8.41,-38.05,-37.93,0,*77
1506855940.56,50454,16.06,74300.8,8.41,-37.27,-37.09,0,*7C
1506855941.83,50455,16.06,74304.3,8.41,-39.97,-39.79,0,*71
1506855943.08,50456,16.06,74304.0,8.41,-37.75,-37.51,0,*74
1506855944.36,50457,16.06,74302.8,8.47,-38.29,-38.11,0,*7E
1506855945.58,50458,16.06,74304.0,8.47,-37.75,-37.45,0,*79
1506855946.8,50459,16.06,74306.0,8.47,-37.45,-37.45,0,*7B
1506855948.09,50460,16.06,74304.0,8.47,-40.09,-40.09,0,*71
1506855949.35,50461,16.06,74306.8,8.45,-41.35,-41.35,0,*72
1506855950.56,50462,16.06,74304.0,8.45,-39.85,-39.65,0,*7F
1506855951.82,50463,16.06,74306.3,8.47,-38.79,-38.61,0,*7B
1506855953.02,50464,16.06,74308.0,8.45,-38.73,-38.61,0,*74
1506855954.25,50465,16.06,74304.8,8.47,-40.47,-40.47,0,*74
1506855955.46,50466,16.06,74306.3,8.45,-41.87,-41.73,0,*7E
1506855956.72,50467,16.06,74306.0,8.45,-43.09,-42.95,0,*70
1506855957.94,50468,16.06,74308.0,8.39,-43.09,-43.01,0,*78
1506855959.19,50469,16.06,74308.5,8.39,-41.81,-41.67,0,*79
1506855960.42,50470,16.06,74308.8,8.33,-41.17,-41.17,0,*73
1506855961.66,50471,16.06,74310.0,8.33,-42.57,-42.37,0,*74
1506855962.9,50472,16.06,74312.8,8.31,-41.81,-41.93,0,*70
1506855964.13,50473,16.06,74314.0,8.29,-42.25,-42.25,0,*7B
1506855965.38,50474,16.06,74310.3,8.29,-42.19,-42.37,0,*70
1506855966.66,50475,16.06,74306.5,8.29,-41.35,-41.35,0,*7D
1506855967.89,50476,16.06,74312.0,8.29,-40.15,-40.03,0,*79
1506855969.12,50477,16.06,74304.5,8.27,-38.79,-38.61,0,*78
1506855970.36,50478,16.06,74308.8,8.27,-38.11,-37.93,0,*7B
1506855971.61,50479,16.06,74310.5,8.29,-38.29,-38.05,0,*7F
1506855972.81,50480,16.06,74308.0,8.31,-38.17,-37.87,0,*78
1506855974.02,50481,16.06,74306.8,8.31,-38.23,-38.17,0,*78
1506855975.27,50482,16.06,74310.0,8.31,-37.99,-37.69,0,*73
1506855976.49,50483,16.06,74308.5,8.35,-37.75,-37.51,0,*7F
1506855977.74,50484,16.06,74310.8,8.35,-38.79,-38.79,0,*7E
1506855978.96,50485,16.06,74314.5,8.35,-44.33,-44.53,0,*79
1506855980.2,50486,16.06,74308.5,8.31,-43.21,-43.21,0,*78
1506855981.44,50487,16.06,74308.8,8.31,-42.83,-42.83,0,*79
1506855982.7,50488,16.06,74312.3,8.29,-41.23,-41.17,0,*78
1506855983.97,50489,16.06,74312.3,8.29,-40.29,-40.21,0,*76
1506855985.2,50490,16.06,74312.3,8.29,-41.03,-41.17,0,*73
1506855986.45,50491,16.06,74310.3,8.25,-41.73,-41.55,0,*7F
1506855987.69,50492,16.06,74308.5,8.25,-39.53,-39.47,0,*7D
1506855988.88,50493,16.06,74308.5,8.27,-40.47,-40.47,0,*7B
1506855990.1,50494,16.06,74310.3,8.27,-40.09,-39.85,0,*76
1506855991.34,50495,16.06,74308.0,8.27,-39.29,-39.23,0,*77
1506855992.56,50496,16.06,74308.0,8.25,-40.47,-40.47,0,*7C
1506855993.77,50497,16.06,74302.5,8.27,-40.21,-40.03,0,*7F
1506855995.02,50498,16.06,74300.0,8.25,-39.47,-39.29,0,*7A
1506855996.26,50499,16.06,74302.0,8.25,-40.35,-40.21,0,*76
1506855997.5,50500,16.06,74302.3,8.27,-42.05,-42.05,0,*70
1506855998.73,50501,16.06,74302.0,8.25,-41.87,-41.87,0,*73
1506855999.96,50502,16.06,74306.8,8.23,-41.11,-40.97,0,*79
1506856001.17,50503,16.06,74306.0,8.23,-43.15,-43.21,0,*70
1506856002.42,50504,16.06,74302.0,8.21,-41.81,-41.61,0,*7C
1506856003.67,50505,16.06,74300.5,8.21,-40.09,-39.91,0,*7C
1506856004.91,50506,16.06,74302.0,8.21,-38.91,-38.73,0,*7C
1506856006.13,50507,16.06,74300.3,8.21,-40.35,-40.35,0,*71
1506856007.41,50508,16.06,74302.0,8.21,-39.71,-39.59,0,*74
1506856008.66,50509,16.06,74302.8,8.21,-38.79,-38.61,0,*76
1506856009.9,50510,16.06,74300.8,8.23,-39.23,-39.23,0,*75
1506856011.13,50511,16.06,74300.8,8.23,-39.15,-38.97,0,*7F
1506856012.33,50512,16.06,74300.3,8.23,-38.61,-38.43,0,*77
1506856013.55,50513,16.06,74302.3,8.23,-38.79,-38.61,0,*7F
1506856014.83,50514,16.06,74300.8,8.25,-38.11,-37.99,0,*78
1506856016.07,50515,16.06,74298.5,8.25,-38.97,-38.91,0,*70
1506856017.29,50516,16.06,74302.5,8.27,-39.29,-39.09,0,*75
1506856018.55,50517,16.06,74306.0,8.27,-38.49,-38.29,0,*70
1506856019.79,50518,16.06,74300.8,8.29,-39.97,-39.85,0,*74
1506856021.04,50519,16.06,74300.0,8.29,-39.09,-38.91,0,*76
1506856022.3,50520,16.06,74300.3,8.29,-40.15,-39.97,0,*78
1506856023.55,50521,16.06,74302.3,8.29,-40.65,-40.59,0,*72
1506856024.8,50522,16.06,74304.3,8.29,-39.47,-39.29,0,*76
1506856026.05,50523,16.06,74298.0,8.29,-39.47,-39.29,0,*77
1506856027.31,50524,16.06,74304.0,8.29,-39.79,-39.65,0,*75
1506856028.5,50525,16.06,74304.3,8.27,-40.47,-40.47,0,*77
1506856029.74,50526,16.06,74302.0,8.27,-39.03,-39.03,0,*74
1506856030.99,50527,16.06,74302.0,8.27,-39.59,-39.23,0,*78
1506856032.25,50528,16.06,74296.8,8.27,-38.29,-38.29,0,*7A
1506856033.5,50529,16.06,74296.0,8.27,-38.29,-38.23,0,*71
1506856034.75,50530,16.06,74302.8,8.29,-39.03,-38.85,0,*72
1506856035.95,50531,16.06,74302.0,8.31,-38.61,-38.55,0,*72
1506856037.2,50532,16.06,74304.3,8.29,-39.03,-38.85,0,*70
1506856038.42,50533,16.06,74298.3,8.31,-40.59,-40.35,0,*7D
1506856039.67,50534,16.06,74298.0,8.29,-38.49,-38.05,0,*71
1506856040.91,50535,16.06,74304.3,8.31,-39.97,-39.97,0,*71
1506856042.13,50536,16.06,74304.8,8.31,-39.59,-39.35,0,*78
1506856043.33,50537,16.06,74300.0,8.31,-38.73,-38.55,0,*77
1506856044.55,50538,16.06,74306.5,8.31,-37.63,-37.57,0,*7B
1506856045.77,50539,16.06,74304.5,8.35,-37.63,-37.33,0,*7C
1506856046.96,50540,16.06,74308.0,8.35,-38.73,-38.73,0,*77
1506856048.18,50541,16.06,74308.0,8.35,-39.35,-39.03,0,*73
1506856049.41,50542,16.06,74308.0,8.33,-38.55,-38.35,0,*75
1506856050.66,50543,16.06,74306.8,8.35,-37.99,-37.93,0,*7E
1506856051.88,50544,16.06,74304.5,8.35,-38.17,-37.93,0,*70
1506856053.12,50545,16.06,74304.5,8.39,-39.29,-39.29,0,*7E
1506856054.35,50546,16.06,74306.5,8.39,-39.65,-39.59,0,*72
1506856055.58,50547,16.06,74306.5,8.39,-38.49,-38.43,0,*76
1506856056.8,50548,16.06,74306.5,8.41,-38.85,-38.73,0,*75
1506856058.02,50549,16.06,74306.3,8.39,-38.61,-38.11,0,*75
1506856059.25,50550,16.06,74308.3,8.41,-37.87,-37.57,0,*78
1506856060.53,50551,16.06,74308.3,8.41,-38.49,-38.29,0,*72
1506856061.75,50552,16.06,74312.0,8.39,-39.29,-39.09,0,*7A
1506856063.04,50553,16.06,74310.5,8.41,-41.81,-41.67,0,*7E
1506856064.25,50554,16.06,74310.8,8.39,-40.59,-40.47,0,*71
1506856065.47,50555,16.06,74314.5,8.39,-38.73,-38.49,0,*76
1506856066.76,50556,16.06,74310.8,8.41,-39.59,-39.59,0,*73
1506856068.0,50557,16.06,74312.5,8.39,-39.41,-39.03,0,*7B
1506856069.21,50558,16.06,74306.5,8.39,-38.11,-38.05,0,*77
1506856070.44,50559,16.06,74304.3,8.39,-39.85,-39.79,0,*70
1506856071.69,50560,16.06,74306.0,8.35,-40.85,-40.85,0,*75
1506856072.94,50561,16.06,74302.3,8.39,-43.09,-42.69,0,*7F
1506856074.18,50562,16.06,74308.5,8.35,-41.93,-41.93,0,*77
1506856075.43,50563,16.06,74310.8,8.31,-40.97,-40.79,0,*72
1506856076.68,50564,16.06,74304.5,8.29,-41.35,-41.41,0,*7F
1506856077.92,50565,16.06,74306.0,8.29,-40.65,-40.79,0,*70
1506856079.17,50566,16.06,74304.3,8.29,-40.03,-39.97,0,*7D
1506856080.45,50567,16.06,74306.0,8.29,-38.49,-37.93,0,*77
1506856081.67,50568,16.06,74304.3,8.31,-37.63,-37.57,0,*7E
1506856082.86,50569,16.06,74310.5,8.31,-40.53,-40.53,0,*78
1506856084.09,50570,16.06,74306.8,8.29,-41.17,-41.03,0,*7C
1506856085.28,50571,16.06,74302.8,8.31,-40.53,-40.53,0,*71
1506856086.54,50572,16.06,74304.3,8.29,-40.15,-39.97,0,*7F
1506856087.75,50573,16.06,74310.3,8.29,-40.65,-40.65,0,*7A
1506856089.0,50574,16.06,74302.0,8.29,-39.47,-39.29,0,*75
1506856090.21,50575,16.06,74304.8,8.31,-37.87,-37.57,0,*78
1506856091.44,50576,16.06,74302.5,8.29,-36.97,-36.73,0,*75
1506856092.62,50577,16.06,74304.5,8.31,-37.57,-37.45,0,*74
1506856093.87,50578,16.06,74300.3,8.33,-38.35,-37.99,0,*73
1506856095.1,50579,16.06,74304.8,8.35,-37.63,-37.33,0,*78
1506856096.32,50580,16.06,74296.5,8.35,-37.03,-36.79,0,*77
1506856097.54,50581,16.06,74298.8,8.35,-37.21,-36.97,0,*76
1506856098.75,50582,16.06,74300.3,8.39,-37.87,-37.75,0,*78
1506856100.0,50583,16.06,74304.5,8.41,-38.43,-38.29,0,*77
1506856101.27,50584,16.06,74300.5,8.41,-37.93,-37.69,0,*79
1506856102.51,50585,16.06,74300.3,8.45,-38.61,-38.49,0,*73